www.pogodaiklimat.ru

Погода и климат >> Архив погоды >> Парагвай >> Puerto Casado


ПОГОДА в Puerto Casado

  • Прогноз погоды в Puerto Casado
  • Монитор погоды в Puerto Casado
  • Климат города

АРХИВ ПОГОДЫ в Puerto Casado

Время (UTC), дата Ветер
(напр.,м/с)
 
Видим.   Явления Облачность Т
(С)
Тd
(С)
f
(%)
Тe
(С)
Тes
(С)
Комфортность P
(гПа)
Po
(гПа)
Тmin
(С)
Tmax
(С)
R
(мм)
R24
(мм)
S
(см)
12 11.10 Ю 1 20 км 6/6 450 м
[Sc]
+22.8 +21.4 92 +30 +33 очень
душно
1013.5 1004.4 +20.4 5
15 11.10 штиль 0 20 км 8/8 900 м
[Cu med, cong]
+27.2 +20.8 68 +34 +39 очень
душно
1013.3 1004.4
18 11.10 ЮВ 1 20 км 8/8 900 м
[Cu med, cong]
+30.2 +20.9 58 +38 +41 очень
душно
1012.1 1003.3
21 11.10 штиль 0 20 км 4/4 1000 м
[Cu hum]
+31.0 +22.0 59 +40 +41 очень
душно
1008.6 999.8
00 12.10 штиль 0 20 км 4/0
[Ac As]
+27.2 +22.5 76 +36 +36 очень
душно
1011.1 1002.2 +31.6
03 12.10 штиль 0 20 км ясно +26.0 +21.4 76 +33 +33 очень
душно
1011.5 1002.5
06 12.10 штиль 0 20 км ясно +24.8 +20.6 77 +31 +31 очень
душно
1012.5 1003.5
09 12.10 штиль 0 20 км ясно +23.0 +22.3 96 +31 +31 очень
душно
1011.5 1002.5
12 12.10 штиль 0 20 км 9/0
[Ac und]
+26.0 +23.0 84 +35 +38 очень
душно
1011.9 1002.9 +22.8
15 12.10 С 2 20 км 8/3 1000 м
[Cu med, cong Cs]
+31.0 +23.6 65 +42 +54 опасность
перегрева
1011.7 1002.9
18 12.10 С 4 20 км 9/4 1000 м
[Cu med, cong Cs]
+33.4 +22.7 54 +43 +48 опасность
перегрева
1009.6 1000.8
21 12.10 С 2 20 км 8/4 800 м
[Cu med, cong Cs]
+34.0 +16.7 36 +37 +38 очень
душно
1007.0 998.3
00 13.10 штиль 0 20 км ясно +29.2 +24.4 75 +41 +41 опасность
перегрева
1008.4 999.6 +34.5
03 13.10 штиль 0 20 км ясно +29.2 +24.4 75 +41 +41 опасность
перегрева
1008.4 999.6 +34.5
09 13.10 Ю 4 20 км 10/10 400 м
[Sc]
+24.4 +20.9 81 +31 +31 очень
душно
1011.0 1002.0
12 13.10 Ю 3 20 км 10/10 450 м
[Sc]
+23.4 +21.3 88 +31 +31 очень
душно
1015.0 1006.0 +23.0
15 13.10 штиль 0 20 км 10/10 450 м
[Sc]
+25.0 +20.5 76 +31 +31 очень
душно
1014.7 1005.7
18 13.10 штиль 0 20 км 10/10 600 м
[Sc]
+23.6 +19.3 77 +29 +29 душно 1014.6 1005.5
21 13.10 Ю 3 20 км 10/10 600 м
[Sc]
+23.0 +18.3 75 +29 +29 очень
душно
1012.6 1003.5
00 14.10 Ю 3 20 км 10/10 600 м
[Sc]
+20.6 +18.1 86 +25 +25 комфорт 1013.4 1004.3 +29.2
09 14.10 Ю 3 20 км 10/10 600 м
[Sc]
+19.0 +17.3 90 +21 +21 комфорт 1014.7 1005.5
12 14.10 штиль 0 20 км 9/9 600 м
[Sc]
+20.0 +18.3 90 +23 +24 комфорт 1014.9 1005.8 +19.0
15 14.10 штиль 0 20 км 10/10 600 м
[Sc]
+22.4 +18.6 79 +28 +28 душно 1014.5 1005.4
18 14.10 штиль 0 20 км 9/4 600 м
[Sc Ac und]
+26.4 +18.0 60 +31 +36 душно 1012.7 1003.7
21 14.10 ЮВ 2 20 км 9/4 600 м
[Sc Ac und]
+25.0 +18.7 68 +30 +30 душно 1011.0 1002.0
00 15.10 штиль 0 20 км 10/10 600 м
[Sc]
+22.2 +18.5 80 +27 +27 душно 1012.6 1003.5 +27.2
06 15.10 штиль 0 20 км 10/10 600 м
[Sc]
+21.0 +17.6 81 +25 +25 комфорт 1013.9 1004.8
09 15.10 Ю 3 20 км 10/10 600 м
[Sc]
+20.0 +18.4 91 +23 +23 комфорт 1013.3 1004.2
12 15.10 штиль 0 20 км 10/10 450 м
[Sc]
+20.4 +18.3 88 +24 +24 комфорт 1014.6 1005.5 +20.0
15 15.10 штиль 0 20 км 9/6 450 м
[Sc Ac und]
+24.2 +17.6 67 +28 +33 душно 1013.6 1004.6
18 15.10 штиль 0 20 км 9/6 600 м
[Sc Ac und]
+25.8 +18.1 62 +30 +34 душно 1011.3 1002.3
21 15.10 штиль 0 20 км 6/6 600 м
[Sc]
+25.8 +18.0 62 +30 +31 душно 1009.5 1000.5
00 16.10 штиль 0 20 км 9/0
[Ac und]
+22.6 +18.5 78 +28 +28 душно 1009.4 1000.3 +26.2
06 16.10 штиль 0 20 км 9/0
[Ac und]
+20.8 +17.9 83 +24 +24 комфорт 1009.5 1000.4
09 16.10 штиль 0 20 км ясно +21.2 +17.9 81 +25 +25 комфорт 1008.5 999.4
12 16.10 штиль 0 20 км 9/0
[Ac und]
+22.8 +18.2 75 +28 +32 душно 1009.1 1000.0 +20.4
15 16.10 штиль 0 20 км 4/4 1000 м
[Cu hum]
+32.0 +21.8 55 +41 +57 опасность
перегрева
1007.8 999.1
18 16.10 штиль 0 20 км 9/9 900 м
[Cu Sc]
+33.4 +22.8 54 +43 +45 опасность
перегрева
1005.9 997.2
21 16.10 штиль 0 20 км 8/4 800 м
[Cu med, cong Ac As]
+34.0 +20.6 46 +41 +42 опасность
перегрева
1003.3 994.6
00 17.10 штиль 0 20 км 5/5 900 м
[Sc diur, vesp]
+31.4 +25.1 69 +45 +45 опасность
перегрева
1003.6 994.8 +34.5
06 17.10 штиль 0 20 км ясно +29.6 +24.5 74 +42 +42 опасность
перегрева
1004.1 995.3
09 17.10 СВ 4 20 км ясно +28.0 +23.5 77 +38 +38 очень
душно
1005.1 996.3
12 17.10 С 4 20 км 5/0
[Ci]
+31.0 +22.3 60 +40 +44 очень
душно
1007.6 998.8 +22.8
15 17.10 С 7 20 км 6/4 1000 м
[Cu hum Ci]
+36.2 +21.0 41 +43 +46 опасность
перегрева
1005.8 997.2
18 17.10 С 6 20 км 8/8 1000 м
[Cu med, cong]
+38.0 +20.0 35 +43 +45 опасность
перегрева
1003.7 995.1
21 17.10 СВ 4 20 км 6/3 1000 м
[Cu med, cong Cs]
+36.4 +21.1 41 +43 +44 опасность
перегрева
1003.1 994.5
00 18.10 штиль 0 20 км 5/0
[Ci]
+32.8 +22.9 56 +43 +43 опасность
перегрева
1002.4 993.7 +38.2
03 18.10 штиль 0 20 км 4/0
[Ci]
+31.2 +23.5 64 +42 +42 опасность
перегрева
1002.8 994.1
06 18.10 штиль 0 20 км ясно +29.8 +22.9 67 +40 +40 очень
душно
1003.9 995.1
09 18.10 штиль 0 20 км ясно +28.2 +22.2 70 +37 +37 очень
душно
1007.7 998.9

 

Местоположение метеостанции Puerto Casado (Парагвай): широта -22.28 долгота -57.86 высота над уровнем моря 87 м.

В архиве по умолчанию представлена погода в Puerto Casado за последнюю неделю. Архивные данные за месяц целиком и за предыдущие месяцы, начиная с января 2011 года, Вы можете получить, выбрав интересующий диапазон дат из раскрывающегося списка и нажав кнопку "Ввод!".


*Определитесь, кто Вы:
робот инопланетянин человек

Внимание! Время в таблицах - всемирное. Для получения местного времени необходимо прибавить поправку, которая в Puerto Casado равна -4 ч.

Смотрите также архив погоды в соседних городах и на ближайших метеорологических станциях:

Погода в Concepcion (Парагвай) (138 км)
Погода в Pozo Colorado (Парагвай) (162 км)
Погода в San Pedro (Парагвай) (213 км)
Погода в Pedro Juan Caballer (Парагвай) (222 км)
Погода в Ponta Pora (Бразилия) (224 км)
Погода в Ponta Pora (Бразилия) (241 км)
Погода в Miranda (Бразилия) (256 км)
Погода в Amambai (Бразилия) (272 км)
Погода в Mariscal Estigar (Парагвай) (284 км)
Погода в Maracaju (Бразилия) (286 км)

Пояснения к столбцам:

Ветер - указаны скорость ветра в м/с - средняя за 10 мин, порывы в срок и между сроками (в фигурных скобках) и направление, откуда дует ветер: С - северный, СВ - северо-восточный, В - восточный, ЮВ - юго-восточный, Ю - южный, ЮЗ - юго-западный, З - западный, СЗ - северо-западный.
Видимость - горизонтальная дальность видимости в метрах или километрах. При видимости от 1 до 10 км при отсутствии осадков обычно наблюдается дымка, при ухудшении видимости до 1 км и менее - туман. В сухую погоду видимость может ухудшаться дымом, пылью или мглою.
Явления - указаны атмосферные явления, наблюдавшиеся в срок или в последний час перед сроком; фигурными скобками обозначены явления, наблюдавшиеся между сроками (за 1-3 часа до срока); квадратными скобками обозначены град или гололедные отложения с указанием их диаметра в мм.
Облачность - указаны через наклонную черту общая и нижняя облачность в баллах и высота нижней границы облаков в метрах; квадратными скобками обозначены формы облаков: Ci - перистые, Cs - перисто-слоистые, Cc - перисто-кучевые, Ac - высококучевые, As - высокослоистые, Sc - слоисто-кучевые, Ns - слоисто-дождевые, Cu - кучевые, Cb - кучево-дождевые. Подробнее классификацию облаков см. в Атласе облаков (PDF).
T - Температура воздуха - температура, измеренная на высоте 2 м над землей.
Td - Температура точки росы - температура, при понижении до которой содержащийся в воздухе водяной пар достигнет насыщения.
f - Относительная влажность воздуха - влажноcть воздуха, измеренная на высоте 2 м над землей.
Te - Эффективная температура - температура, которую ощущает одетый по сезону человек в тени. Характеристика душности погоды. При расчете учитывается влияние влажности воздуха и скорости ветра на теплоощущения человека.
Tes - Эффективная температура на солнце - температура, которую ощущает человек, с поправкой на солнечный нагрев. Характеристика знойности погоды. Зависит от высоты солнца над горизонтом, облачности и скорости ветра. Ночью, в пасмурную погоду, а также при ветре 12 м/с и более поправка равна нулю.
P - Атмосферное давление - приведенное к уровню моря атмосферное давление.
Po - Атмосферное давление - измеренное на уровне метеостанции атмосферное давление.
Tmin - Минимальная температура - минимум температуры воздуха на высоте 2 м над землей.
Tmax - Максимальная температура - максимум температуры воздуха на высоте 2 м над землей.
R - Количество осадков - Количество выпавших осадков за период времени, мм. При наведении курсора мыши на число - период времени, за который выпало указанное количество осадков.
R24 - Количество осадков - Количество выпавших осадков за 24 часа, мм.
S - Снежный покров - Высота снежного покрова, см. При наведении курсора мыши на число - состояние снежного покрова и степень покрытия местности в баллах.